DateTimeUTC,F1_A11,F1_S11,BsB_S11,BsG_S11,BsR_S11,BbsB_S11,BbsG_S11,BbsR_S11,BaB_A11,BaG_A11,BaR_A11,Tu_S11,T_S11,Uu_S11,U_S11,P_S11,T1_A11
2021-08-23T20:00:00Z,00000200,20000000,,,,,,,-000.03,0000.05,0000.23,19.5,26.3,08.3,05.5,0677.5,31.1
2021-08-23T20:01:00Z,00000200,20000000,,,,,,,0000.02,0000.03,-000.25,19.5,26.3,08.3,05.5,0677.5,31.0
2021-08-23T20:02:00Z,00000200,20000000,,,,,,,-000.12,-000.31,0000.51,19.5,26.3,08.3,05.5,0677.5,31.0
2021-08-23T20:03:00Z,00000200,60000000,,,,,,,0001.01,0000.77,0000.04,19.5,26.3,08.3,05.5,0677.5,31.1
2021-08-23T20:04:00Z,00000200,40000000,0005.33,0004.39,0002.66,0000.32,0000.46,0000.37,0001.29,0001.39,0000.98,19.6,26.1,08.3,05.6,0678.5,31.0
2021-08-23T20:05:00Z,00000200,00000000,0004.80,0004.66,0002.45,0000.57,0000.25,0000.27,0000.91,0000.76,0000.98,19.6,26.1,08.3,05.6,0678.5,31.1
2021-08-23T20:06:00Z,00000200,00000000,0004.48,0004.30,0002.61,0000.88,0000.50,0000.15,0000.88,0001.27,0000.59,19.6,26.1,08.3,05.6,0678.6,31.0
2021-08-23T20:07:00Z,00000200,00000000,0004.61,0004.74,0002.69,0000.77,0000.27,0000.24,0001.18,0000.72,0000.82,19.6,26.1,08.3,05.6,0678.6,31.1
2021-08-23T20:08:00Z,00000200,00000000,0005.43,0004.28,0002.52,0000.77,0000.27,0000.19,0001.14,0001.03,0001.01,19.6,26.1,08.3,05.7,0678.6,31.0
2021-08-23T20:09:00Z,00000200,00000000,0005.02,0004.52,0002.53,0000.36,0000.63,0000.55,0000.90,0000.98,0000.37,19.6,26.1,08.3,05.6,0678.6,31.0
2021-08-23T20:10:00Z,00000200,00000000,0005.32,0004.44,0002.82,0000.47,0000.27,0000.45,0000.77,0000.86,0000.77,19.6,26.1,08.2,05.6,0678.6,31.1
2021-08-23T20:11:00Z,00000200,00000000,0005.55,0004.34,0002.74,0000.71,0000.36,0000.29,0001.16,0001.11,0001.03,19.6,26.1,08.3,05.6,0678.6,31.1
2021-08-23T20:12:00Z,00000200,00000000,0005.54,0004.29,0002.54,0000.80,0000.22,0000.20,0001.53,0001.18,0000.78,19.6,26.1,08.3,05.6,0678.6,31.1
2021-08-23T20:13:00Z,00000200,00000000,0005.58,0004.24,0003.00,0000.65,0000.22,0000.28,0000.89,0000.88,0001.13,19.6,26.1,08.4,05.7,0678.7,31.1
2021-08-23T20:14:00Z,00000200,00000000,0005.63,0004.29,0002.50,0000.72,0000.36,0000.30,0000.98,0001.06,0000.63,19.6,26.0,08.4,05.7,0678.7,31.0
2021-08-23T20:15:00Z,00000200,00000000,0004.74,0004.11,0002.52,0000.44,0000.28,0000.37,0001.39,0001.01,0000.75,19.7,26.0,08.4,05.7,0678.7,31.0
2021-08-23T20:16:00Z,00000200,00000000,0006.05,0004.16,0002.80,0000.93,0000.59,-000.08,0001.00,0000.90,0000.75,19.6,26.0,08.4,05.7,0678.7,31.0
2021-08-23T20:17:00Z,00000200,00000000,0005.49,0004.19,0002.58,0000.50,0000.47,0000.45,0001.14,0001.32,0000.93,19.6,26.0,08.4,05.7,0678.7,31.0
2021-08-23T20:18:00Z,00000200,00000000,0005.34,0004.17,0002.61,0001.27,0000.46,0000.52,0001.20,0000.93,0000.82,19.6,26.0,08.4,05.7,0678.7,31.0
2021-08-23T20:19:00Z,00000200,00000000,0005.68,0004.30,0002.72,0000.43,0000.26,0000.31,0000.82,0001.01,0001.09,19.6,26.0,08.5,05.8,0678.7,31.0
2021-08-23T20:20:00Z,00000200,00000000,0005.31,0004.03,0002.84,0000.39,0000.38,0000.06,0001.28,0001.06,0000.72,19.6,26.0,08.5,05.8,0678.7,31.0
2021-08-23T20:21:00Z,00000200,00000000,0005.80,0004.09,0002.74,0000.79,0000.53,0000.48,0000.67,0000.74,0000.78,19.6,26.0,08.5,05.8,0678.7,31.0
2021-08-23T20:22:00Z,00000200,00000000,0005.32,0004.09,0002.72,0000.56,0000.36,0000.34,0000.93,0001.06,0000.43,19.6,26.0,08.5,05.8,0678.7,31.1
2021-08-23T20:23:00Z,00000200,00000000,0005.11,0004.03,0002.41,0000.62,0000.34,0000.41,0001.46,0000.65,0000.73,19.6,26.0,08.5,05.8,0678.7,31.0
2021-08-23T20:24:00Z,00000200,00000000,0005.38,0003.99,0002.86,0000.71,0000.28,0000.24,0001.01,0001.21,0000.89,19.6,26.0,08.4,05.7,0678.7,31.1
2021-08-23T20:25:00Z,00000200,00000000,0004.67,0004.00,0002.46,0000.35,0000.37,0000.43,0001.04,0001.01,0000.91,19.6,26.0,08.5,05.8,0678.7,31.0
2021-08-23T20:26:00Z,00000200,00000000,0004.57,0003.89,0002.34,0000.38,0000.54,0000.13,0001.03,0001.19,0001.06,19.6,26.0,08.5,05.8,0678.7,31.0
2021-08-23T20:27:00Z,00000200,00000000,0004.62,0004.26,0002.46,0000.58,0000.54,0000.45,0000.77,0000.53,0000.63,19.6,26.0,08.3,05.7,0678.7,31.0
2021-08-23T20:28:00Z,00000200,00000000,0004.70,0003.66,0002.19,-000.03,0000.29,0000.32,0001.09,0000.96,0000.54,19.6,26.0,08.4,05.7,0678.7,31.1
2021-08-23T20:29:00Z,00000200,00000000,0004.33,0003.69,0002.88,0000.57,0000.22,0000.37,0000.78,0000.87,0000.61,19.6,26.0,08.4,05.7,0678.7,31.1
2021-08-23T20:30:00Z,00000200,00000000,0004.52,0003.83,0002.44,0000.72,0000.28,0000.54,0001.24,0000.81,0000.64,19.6,26.0,08.3,05.6,0678.8,31.0
2021-08-23T20:31:00Z,00000200,00000000,0004.72,0004.05,0002.32,-000.31,0000.16,0000.54,0001.02,0001.07,0001.04,19.6,26.0,08.4,05.7,0678.8,31.0
2021-08-23T20:32:00Z,00000200,00000000,0004.18,0003.80,0002.22,0000.94,0000.53,0000.15,0000.84,0001.02,0000.65,19.6,26.0,08.4,05.7,0678.8,31.0
2021-08-23T20:33:00Z,00000200,00000000,0004.46,0003.69,0002.62,0001.53,0000.55,0000.05,0000.93,0000.60,0000.59,19.6,26.0,08.4,05.7,0678.8,31.0
2021-08-23T20:34:00Z,00000200,00000000,0003.88,0003.56,0002.07,0000.78,0000.45,0000.39,0001.12,0000.98,0000.70,19.6,26.0,08.3,05.7,0678.8,31.1
2021-08-23T20:35:00Z,00000200,00000000,0004.21,0003.39,0002.17,0000.56,0000.11,0000.45,0000.71,0001.01,0000.68,19.6,26.0,08.5,05.8,0678.8,31.1
2021-08-23T20:36:00Z,00000200,00000000,0005.17,0003.59,0002.69,0000.80,0000.20,0000.45,0000.98,0000.74,0000.33,19.6,26.0,08.4,05.7,0678.8,31.0
2021-08-23T20:37:00Z,00000200,00000000,0004.29,0003.76,0002.51,0000.51,0000.24,0000.39,0000.81,0000.92,0001.32,19.6,26.0,08.4,05.7,0678.8,31.0
2021-08-23T20:38:00Z,00000200,00000000,0004.79,0004.22,0002.34,0000.55,0000.40,0000.14,0001.17,0000.92,0000.65,19.6,26.0,08.5,05.8,0678.8,31.1
2021-08-23T20:39:00Z,00000200,00000000,0005.00,0003.71,0002.56,0000.11,0000.33,0000.65,0000.90,0000.49,0000.32,19.6,26.0,08.5,05.8,0678.8,31.0
2021-08-23T20:40:00Z,00000200,00000000,0004.46,0003.38,0002.27,0000.95,0000.50,0000.20,0000.96,0001.22,0001.11,19.6,25.9,08.6,05.8,0678.8,31.0
2021-08-23T20:41:00Z,00000200,00000000,0005.00,0003.52,0002.21,0000.60,0000.48,0000.19,0000.98,0000.94,0000.74,19.6,26.0,08.6,05.8,0678.8,31.0
2021-08-23T20:42:00Z,00000200,00000000,0005.18,0003.49,0002.41,0000.15,0000.23,0000.29,0000.97,0001.07,0000.59,19.6,26.0,08.6,05.8,0678.8,31.1
2021-08-23T20:43:00Z,00000200,00000000,0005.12,0003.75,0002.12,0001.15,0000.15,0000.09,0000.95,0000.88,0001.05,19.6,25.9,08.7,05.9,0678.9,31.0
2021-08-23T20:44:00Z,00000200,00000000,0003.14,0003.17,0002.33,0000.14,0000.16,0000.13,0000.82,0000.94,0000.50,19.6,26.0,08.6,05.9,0678.9,31.0
2021-08-23T20:45:00Z,00000200,00000000,0005.41,0003.40,0002.02,0000.26,0000.28,0000.41,0000.92,0000.94,0000.83,19.6,26.0,08.7,05.9,0678.9,31.0
2021-08-23T20:46:00Z,00000200,00000000,0004.10,0003.26,0002.00,0000.99,0000.33,0000.21,0001.00,0000.52,0000.44,19.6,26.0,08.7,05.9,0678.9,31.0
2021-08-23T20:47:00Z,00000200,00000000,0005.15,0003.20,0002.26,0000.72,0000.31,0000.37,0000.96,0000.76,0000.79,19.5,25.9,08.8,06.0,0678.9,31.1
2021-08-23T20:48:00Z,00000200,00000000,0004.43,0002.44,0001.95,0001.30,0000.45,0000.39,0000.51,0000.61,0000.30,19.6,25.9,08.7,05.9,0678.9,31.0
2021-08-23T20:49:00Z,00000200,00000000,0003.83,0002.84,0001.77,-000.08,0000.10,0000.30,0000.69,0000.91,0000.83,19.5,25.9,08.7,05.9,0678.9,31.0
2021-08-23T20:50:00Z,00000200,00000000,0003.78,0002.96,0001.81,0000.57,0000.38,0000.14,0000.76,0000.69,0000.51,19.6,25.9,08.7,05.9,0678.9,31.0
2021-08-23T20:51:00Z,00000200,00000000,0004.13,0002.70,0001.76,0000.60,0000.13,0000.41,0000.72,0000.44,0000.31,19.5,25.9,08.8,06.0,0678.9,31.0
2021-08-23T20:52:00Z,00000200,00000000,0003.87,0003.32,0001.94,0000.52,0000.07,-000.03,0000.85,0000.54,0000.74,19.5,25.9,08.7,05.9,0678.9,31.0
2021-08-23T20:53:00Z,00000200,00000000,0001.92,0002.03,0001.04,0000.23,0000.28,0000.13,0000.42,0000.86,0000.36,19.5,25.9,08.6,05.9,0678.9,31.0
2021-08-23T20:54:00Z,00000200,00000000,0001.59,0001.43,0000.77,0000.56,-000.13,-000.15,0000.06,-000.18,-000.11,19.5,25.9,08.7,05.9,0679.0,31.0
2021-08-23T20:55:00Z,00000200,00000000,0002.21,0001.54,0000.63,0000.45,0000.09,0000.06,0000.34,0000.65,0000.63,19.5,25.9,08.6,05.9,0679.0,31.0
2021-08-23T20:56:00Z,00000200,00000000,0001.41,0001.06,0000.66,0000.26,0000.06,-000.12,0000.56,0000.01,-000.15,19.5,25.9,08.6,05.8,0679.0,31.0
2021-08-23T20:57:00Z,00000200,40000000,,,,,,,0000.13,0000.29,0000.17,19.6,25.9,08.4,05.7,0679.0,31.0
2021-08-23T20:58:00Z,00000200,60000000,,,,,,,-000.11,0000.04,0000.13,19.3,26.0,08.6,05.7,0678.0,31.0
2021-08-23T20:59:00Z,00000200,20000000,,,,,,,-000.20,-000.60,-000.34,19.3,26.1,08.6,05.7,0678.0,31.1
